Hourly Weather Kleczkowo

Today, 29 July, Thursday

Time Temperature Precipitation Wind Pressure Humidity
00:00 +20°C° 0.6 mm 2 mps 747 mmHg 93%
01:00 +20°C° 0 mm 2 mps 747 mmHg 93%
02:00 +20°C° 0.7 mm 2 mps 747 mmHg 94%
03:00 +20°C° 0.7 mm 2 mps 747 mmHg 94%
04:00 +20°C° 0.7 mm 2 mps 747 mmHg 95%
05:00 +20°C° 0.1 mm 3 mps 747 mmHg 91%
06:00 +21°C° 0.1 mm 4 mps 747 mmHg 87%
07:00 +22°C° 0 mm 4 mps 747 mmHg 82%
08:00 +23°C° 0 mm 4 mps 747 mmHg 73%
09:00 +25°C° 0 mm 5 mps 747 mmHg 63%
10:00 +27°C° 0 mm 5 mps 747 mmHg 54%
11:00 +27°C° 0 mm 5 mps 747 mmHg 50%
12:00 +28°C° 0 mm 5 mps 747 mmHg 47%
13:00 +29°C° 0 mm 6 mps 747 mmHg 43%
14:00 +28°C° 0 mm 5 mps 747 mmHg 47%
15:00 +27°C° 0 mm 5 mps 747 mmHg 51%
16:00 +26°C° 0 mm 5 mps 747 mmHg 54%
17:00 +25°C° 0 mm 4 mps 747 mmHg 58%
18:00 +24°C° 0 mm 3 mps 747 mmHg 61%
19:00 +21°C° 0 mm 3 mps 747 mmHg 65%
20:00 +21°C° 0 mm 3 mps 747 mmHg 64%
21:00 +21°C° 0 mm 4 mps 747 mmHg 64%
22:00 +21°C° 0 mm 4 mps 747 mmHg 63%
23:00 +20°C° 0 mm 4 mps 747 mmHg 65%

Tomorrow, 30 July, Friday

Time Temperature Precipitation Wind Pressure Humidity
00:00 +19°C° 0 mm 3 mps 747 mmHg 67%
01:00 +18°C° 0 mm 3 mps 748 mmHg 69%
02:00 +17°C° 0 mm 3 mps 748 mmHg 73%
03:00 +16°C° 0 mm 3 mps 748 mmHg 77%
04:00 +14°C° 0 mm 3 mps 747 mmHg 80%
05:00 +17°C° 0 mm 3 mps 747 mmHg 74%
06:00 +19°C° 0 mm 4 mps 748 mmHg 68%
07:00 +20°C° 0 mm 4 mps 748 mmHg 62%
08:00 +21°C° 0 mm 5 mps 747 mmHg 56%
09:00 +23°C° 0 mm 6 mps 747 mmHg 50%
10:00 +24°C° 0 mm 7 mps 747 mmHg 44%
11:00 +24°C° 0 mm 7 mps 747 mmHg 43%
12:00 +26°C° 0 mm 7 mps 746 mmHg 41%
13:00 +27°C° 0 mm 7 mps 746 mmHg 39%
14:00 +27°C° 0 mm 7 mps 746 mmHg 40%
15:00 +27°C° 0 mm 7 mps 746 mmHg 41%
16:00 +27°C° 0 mm 6 mps 746 mmHg 42%
17:00 +25°C° 0 mm 5 mps 745 mmHg 46%
18:00 +23°C° 0 mm 5 mps 745 mmHg 50%
19:00 +22°C° 0 mm 4 mps 745 mmHg 55%
20:00 +21°C° 0 mm 3 mps 745 mmHg 59%
21:00 +20°C° 0 mm 3 mps 745 mmHg 63%
22:00 +18°C° 0 mm 3 mps 745 mmHg 66%
23:00 +18°C° 0 mm 3 mps 745 mmHg 68%

Day after tomorrow, 31 July, Saturday

Time Temperature Precipitation Wind Pressure Humidity
00:00 +17°C° 0 mm 3 mps 746 mmHg 69%
01:00 +17°C° 0 mm 2 mps 746 mmHg 70%
02:00 +16°C° 0 mm 2 mps 746 mmHg 70%
03:00 +16°C° 0 mm 2 mps 746 mmHg 71%
04:00 +16°C° 0 mm 2 mps 746 mmHg 72%
05:00 +17°C° 0 mm 2 mps 746 mmHg 67%
06:00 +19°C° 0 mm 2 mps 746 mmHg 62%
07:00 +21°C° 0 mm 2 mps 746 mmHg 57%
08:00 +24°C° 0 mm 2 mps 746 mmHg 52%
09:00 +26°C° 0 mm 3 mps 746 mmHg 47%
10:00 +27°C° 0 mm 3 mps 746 mmHg 42%
11:00 +28°C° 0 mm 4 mps 745 mmHg 41%
12:00 +29°C° 0 mm 4 mps 745 mmHg 40%
13:00 +30°C° 0 mm 5 mps 745 mmHg 40%
14:00 +27°C° 0.2 mm 5 mps 745 mmHg 52%
15:00 +25°C° 0.2 mm 4 mps 745 mmHg 64%
16:00 +22°C° 0.2 mm 4 mps 745 mmHg 76%
17:00 +21°C° 0 mm 4 mps 745 mmHg 79%
18:00 +20°C° 0 mm 4 mps 745 mmHg 81%
19:00 +20°C° 0 mm 3 mps 744 mmHg 84%
20:00 +19°C° 0 mm 4 mps 744 mmHg 88%
21:00 +18°C° 0 mm 4 mps 745 mmHg 92%
22:00 +18°C° 0 mm 4 mps 745 mmHg 96%
23:00 +17°C° 0 mm 4 mps 745 mmHg 95%

1 August, Sunday

Time Temperature Precipitation Wind Pressure Humidity
00:00 +17°C° 0 mm 4 mps 745 mmHg 93%
01:00 +17°C° 0 mm 3 mps 745 mmHg 92%
02:00 +16°C° 0 mm 3 mps 745 mmHg 89%
03:00 +14°C° 0 mm 3 mps 745 mmHg 86%
04:00 +13°C° 0 mm 3 mps 745 mmHg 83%
05:00 +16°C° 0 mm 3 mps 746 mmHg 76%
06:00 +18°C° 0 mm 4 mps 746 mmHg 70%
07:00 +19°C° 0 mm 4 mps 746 mmHg 63%
08:00 +21°C° 0 mm 4 mps 746 mmHg 58%
09:00 +22°C° 0 mm 4 mps 746 mmHg 53%
10:00 +25°C° 0 mm 4 mps 746 mmHg 48%
11:00 +26°C° 0 mm 4 mps 746 mmHg 45%
12:00 +26°C° 0 mm 4 mps 746 mmHg 43%
13:00 +27°C° 0 mm 4 mps 746 mmHg 40%
14:00 +25°C° 0.1 mm 4 mps 746 mmHg 50%
15:00 +22°C° 0.1 mm 4 mps 746 mmHg 60%
16:00 +20°C° 0.1 mm 3 mps 746 mmHg 71%
17:00 +19°C° 0 mm 3 mps 746 mmHg 73%
18:00 +19°C° 0 mm 2 mps 746 mmHg 75%
19:00 +18°C° 0 mm 2 mps 745 mmHg 77%
20:00 +18°C° 0 mm 2 mps 745 mmHg 77%
21:00 +18°C° 0 mm 2 mps 745 mmHg 76%
22:00 +19°C° 0 mm 1 mps 745 mmHg 75%
23:00 +17°C° 0 mm 2 mps 745 mmHg 77%

2 August, Monday

Time Temperature Precipitation Wind Pressure Humidity
00:00 +17°C° 0 mm 2 mps 745 mmHg 79%
01:00 +17°C° 0 mm 2 mps 745 mmHg 81%
02:00 +17°C° 0.6 mm 2 mps 745 mmHg 84%
03:00 +16°C° 0.6 mm 2 mps 745 mmHg 87%
04:00 +16°C° 0.6 mm 2 mps 745 mmHg 89%
05:00 +16°C° 0.9 mm 3 mps 745 mmHg 88%
06:00 +16°C° 0.9 mm 3 mps 745 mmHg 87%
07:00 +16°C° 0.9 mm 3 mps 745 mmHg 86%
08:00 +17°C° 0.2 mm 4 mps 746 mmHg 82%
09:00 +17°C° 0.2 mm 4 mps 746 mmHg 79%
10:00 +18°C° 0.2 mm 4 mps 746 mmHg 75%
11:00 +17°C° 0.2 mm 5 mps 746 mmHg 71%
12:00 +19°C° 0.2 mm 5 mps 747 mmHg 67%
13:00 +19°C° 0.2 mm 6 mps 747 mmHg 64%
14:00 +19°C° 0.2 mm 6 mps 747 mmHg 65%
15:00 +19°C° 0.2 mm 6 mps 747 mmHg 67%
16:00 +19°C° 0.2 mm 6 mps 747 mmHg 68%
17:00 +19°C° 0.3 mm 5 mps 747 mmHg 73%
18:00 +18°C° 0.3 mm 4 mps 747 mmHg 79%
19:00 +17°C° 0.3 mm 4 mps 747 mmHg 84%
20:00 +16°C° 0.1 mm 3 mps 748 mmHg 86%
21:00 +16°C° 0.1 mm 3 mps 748 mmHg 89%
22:00 +16°C° 0.1 mm 3 mps 748 mmHg 91%
23:00 +14°C° 0 mm 3 mps 748 mmHg 92%

3 August, Tuesday

Time Temperature Precipitation Wind Pressure Humidity
00:00 +15°C° 0 mm 2 mps 748 mmHg 93%
01:00 +15°C° 0 mm 2 mps 749 mmHg 94%
02:00 +14°C° 0 mm 2 mps 749 mmHg 95%
03:00 +14°C° 0 mm 2 mps 749 mmHg 95%
04:00 +13°C° 0 mm 2 mps 749 mmHg 96%
05:00 +15°C° 0 mm 2 mps 749 mmHg 91%
06:00 +16°C° 0 mm 3 mps 749 mmHg 86%
07:00 +17°C° 0 mm 3 mps 749 mmHg 81%
08:00 +18°C° 0.1 mm 3 mps 750 mmHg 76%
09:00 +19°C° 0.1 mm 3 mps 750 mmHg 70%
10:00 +20°C° 0.1 mm 3 mps 750 mmHg 64%
11:00 +21°C° 0.3 mm 4 mps 750 mmHg 57%
12:00 +22°C° 0.3 mm 5 mps 749 mmHg 50%
13:00 +25°C° 0.3 mm 5 mps 749 mmHg 43%
14:00 +23°C° 0 mm 5 mps 749 mmHg 44%
15:00 +23°C° 0 mm 4 mps 749 mmHg 44%
16:00 +22°C° 0 mm 4 mps 749 mmHg 44%
17:00 +21°C° 0 mm 3 mps 749 mmHg 48%
18:00 +20°C° 0 mm 2 mps 749 mmHg 51%
19:00 +19°C° 0 mm 2 mps 749 mmHg 54%
20:00 +19°C° 0 mm 2 mps 750 mmHg 57%
21:00 +18°C° 0 mm 2 mps 750 mmHg 60%
22:00 +17°C° 0 mm 2 mps 750 mmHg 63%
23:00 +17°C° 0 mm 2 mps 750 mmHg 66%
Show more